RH
24 24 23 22 22 22 22 22 22 22 22 23 24 24 25 25 25 25 25 26 26 28 29 30 32 34 37 40 41 43 42 43 42 48 70 90 97 100 105 104 93 85 82 79 78 74 66 62 65 69 69 71 76 79 84 83 73 65 64 66 68 68 54 33 32 41 43 44 46 43 40 39 36 34 41 54 66 77 83 82 78 77 81 89 96
24 23 22 22 21 21 21 22 22 23 23 24 25 26 28 29 28 28 28 28 29 30 32 35 38 40 43 43 42 43 45 46 46 58 86 104 103 100 97 90 79 72 68 66 69 68 63 62 66 70 75 82 84 82 82 78 71 69 73 76 75 71 54 37 37 43 47 48 49 48 46 52 61 55 47 54 67 78 85 89 94 94 91 89 86
24 23 22 22 22 22 22 23 23 24 25 26 27 28 30 32 31 31 30 31 33 35 38 40 43 46 46 46 51 58 59 57 55 68 93 102 95 89 83 73 68 66 63 63 66 65 65 67 65 67 75 83 84 82 80 76 77 82 87 87 81 73 63 53 49 48 49 50 50 52 49 51 69 81 81 76 75 82 87 90 100 105 101 93 83
25 26 25 25 26 26 25 25 25 27 27 28 29 30 33 35 35 35 35 35 37 40 44 47 49 50 51 63 79 84 82 79 73 76 88 89 80 76 72 68 70 72 68 66 66 67 70 69 65 67 74 79 82 82 78 77 85 93 95 93 86 77 70 66 60 52 50 51 50 51 53 50 49 60 78 90 94 97 97 96 99 100 100 98 94
27 28 28 27 27 27 26 27 27 28 29 30 32 33 36 39 40 39 38 39 42 46 49 52 54 53 61 82 96 95 95 96 88 82 86 84 77 76 75 77 82 81 74 69 67 67 70 69 68 74 79 81 82 80 75 78 89 97 99 97 92 85 80 77 68 55 51 53 51 48 52 55 49 43 45 56 72 86 96 101 102 100 98 99 100
26 28 28 28 27 26 26 26 27 28 30 32 34 37 39 41 43 44 43 43 45 49 54 56 57 57 70 92 100 98 101 101 95 91 93 91 85 84 86 87 87 82 76 73 68 67 71 72 74 79 81 78 75 70 69 75 85 94 98 99 97 93 90 86 71 56 53 53 51 50 51 52 52 48 42 40 43 50 61 76 90 100 102 101 101
26 27 27 27 26 25 25 25 26 28 30 33 35 37 40 42 45 47 48 50 51 53 56 60 62 60 73 96 102 100 101 98 97 98 99 98 96 97 94 88 84 80 78 77 74 76 79 78 78 78 74 68 64 62 64 72 80 87 93 95 96 95 93 88 70 57 55 52 48 49 51 53 52 50 49 47 46 44 42 43 52 69 83 92 98
25 26 26 26 26 25 25 25 26 28 30 33 37 40 42 44 48 53 56 59 58 57 57 61 63 61 76 101 105 97 95 92 94 99 100 100 102 105 99 89 82 77 75 77 81 86 89 86 82 75 69 62 58 58 63 69 76 82 86 86 86 85 82 74 64 56 55 52 49 49 50 51 52 52 53 53 52 52 50 44 39 38 43 53 63
25 25 24 24 25 25 24 24 25 27 31 34 39 45 49 49 52 58 62 65 64 62 61 62 63 61 72 95 103 100 96 93 94 99 100 100 102 102 97 89 82 75 76 81 87 93 96 91 81 70 62 57 54 57 61 65 70 74 76 76 74 71 66 60 58 58 56 55 54 53 51 50 52 55 58 60 59 57 55 54 49 41 35 33 35
24 23 23 24 24 24 24 24 25 25 28 33 39 47 51 53 55 56 61 66 66 66 65 64 64 61 62 71 82 90 94 95 97 98 98 100 103 103 99 94 88 81 82 88 93 98 97 88 75 64 56 52 52 55 59 61 65 69 72 73 69 63 58 56 57 58 59 61 60 56 53 53 55 59 63 65 66 65 63 61 58 53 46 39 35
23 24 24 24 24 26 26 24 25 27 28 31 38 48 54 56 55 53 58 64 64 64 64 63 62 61 59 58 60 63 68 73 76 76 79 87 100 106 103 101 97 92 91 94 98 99 92 81 70 60 53 50 51 53 57 63 68 73 74 72 67 61 57 57 58 60 63 64 62 59 56 57 60 64 67 68 71 73 71 69 68 66 61 53 46
25 22 21 27 29 26 28 30 28 27 29 32 39 50 57 60 59 58 59 61 63 63 62 62 61 59 57 56 55 54 54 53 52 56 66 82 98 105 103 103 102 99 98 97 96 92 85 76 67 60 54 50 49 50 55 62 67 70 71 69 66 63 61 60 60 63 66 66 64 60 58 61 64 67 70 74 79 83 81 77 77 78 78 74 68
23 22 41 69 67 47 36 31 30 31 31 34 42 54 61 61 60 63 64 63 62 62 61 59 59 58 56 53 52 51 52 53 54 61 75 90 101 102 100 102 103 101 98 94 89 84 80 76 69 64 59 54 52 53 57 61 63 64 65 67 67 67 67 67 66 67 69 70 67 63 61 64 68 71 75 81 88 92 91 88 87 87 88 88 86
24 29 69 102 99 87 65 36 29 31 30 32 37 46 57 61 61 62 64 64 62 59 57 57 56 55 54 55 57 60 66 75 80 85 91 96 100 100 100 101 102 101 97 90 84 79 77 75 72 68 66 64 62 63 65 68 68 67 65 68 72 75 76 75 73 73 74 74 71 70 69 69 73 76 79 85 92 98 99 97 94 91 92 95 95
20 31 78 104 99 102 93 66 44 26 30 55 61 49 46 51 56 59 60 60 58 55 51 50 52 53 58 69 80 89 95 97 100 102 103 103 103 102 102 101 100 99 95 89 82 79 78 77 76 73 72 72 69 70 72 73 73 72 71 73 75 75 76 75 75 75 76 77 75 76 76 76 78 80 82 85 92 100 104 103 101 95 93 97 96
24 42 86 106 100 101 100 96 78 50 58 91 97 83 71 58 50 50 54 54 54 57 54 48 47 51 65 85 97 105 108 104 105 110 109 109 110 106 104 100 96 94 91 87 82 79 81 84 83 80 77 75 72 70 70 69 70 71 70 68 65 62 64 67 73 80 84 83 80 79 79 79 79 80 81 84 90 99 103 104 105 100 95 93 89
65 79 100 105 100 103 102 102 94 83 93 104 99 100 99 85 69 54 45 45 51 55 50 43 46 51 64 89 103 104 104 101 103 109 107 106 108 105 101 98 96 94 89 84 81 77 80 86 87 84 79 75 71 67 65 62 60 59 57 54 54 55 59 65 76 87 92 90 85 83 83 83 82 81 82 85 90 98 102 102 104 104 99 88 76
99 100 105 104 101 103 98 97 95 89 96 100 93 99 105 101 93 71 54 64 77 75 66 62 69 78 83 96 106 102 99 101 102 103 101 100 102 101 100 100 100 97 91 86 84 81 82 87 88 85 80 75 70 64 58 54 51 51 51 52 55 59 64 72 82 90 93 91 89 88 88 85 82 81 82 85 90 97 101 101 103 105 97 79 62
100 107 102 95 96 100 94 96 100 87 78 73 63 72 88 87 86 78 70 87 104 97 93 95 95 100 102 101 104 102 99 99 97 96 96 96 99 99 100 102 101 99 97 92 87 81 77 78 78 76 73 72 71 65 59 56 55 54 52 52 55 60 67 75 83 88 90 90 90 88 85 82 79 77 77 79 85 91 94 97 102 104 93 73 58
75 92 93 80 81 98 100 96 102 96 80 63 42 41 53 57 74 86 67 69 99 102 97 102 99 97 101 101 102 103 98 95 93 94 99 101 103 102 101 102 104 104 99 88 77 71 66 64 64 64 67 67 66 65 63 59 52 44 40 40 43 48 54 61 70 79 85 88 88 83 76 73 71 68 66 67 70 75 79 83 90 96 88 73 62
72 79 92 82 67 85 103 99 103 100 76 57 42 35 38 45 67 83 57 47 86 107 100 101 100 96 99 101 100 101 99 100 104 105 106 108 109 107 104 102 105 106 97 85 78 73 68 66 66 69 71 67 63 60 56 47 38 33 33 35 38 41 44 48 56 67 78 81 77 70 65 63 62 59 56 55 56 59 63 66 73 81 82 75 66
92 93 105 96 74 87 105 102 103 91 59 41 36 31 39 48 48 48 40 41 72 100 103 100 99 97 101 103 100 100 99 101 106 105 103 103 105 107 105 102 103 104 102 99 96 89 82 78 76 75 72 65 58 51 43 36 35 36 37 38 39 43 46 49 56 63 68 67 63 61 60 59 57 56 53 52 53 54 56 57 61 66 69 71 67
98 100 105 102 94 99 105 102 98 82 62 54 51 53 62 64 56 49 49 53 68 90 101 99 100 104 107 105 100 99 100 102 104 102 99 101 103 106 105 101 101 102 102 100 93 84 78 72 67 63 59 53 48 43 40 39 40 41 41 44 47 50 53 56 61 65 65 63 62 63 63 61 59 57 57 58 60 61 60 60 61 61 61 63 61
101 100 102 103 103 100 94 99 100 90 86 80 73 86 90 71 67 74 78 81 83 93 103 105 107 108 106 103 100 100 102 103 105 102 98 99 101 103 104 103 103 102 92 81 69 62 61 60 56 51 47 44 44 45 45 44 43 44 46 52 57 62 65 67 70 71 71 70 71 71 68 65 64 65 66 69 70 71 70 68 67 66 64 61 58
101 100 100 100 103 102 94 98 103 98 97 89 80 94 100 82 78 87 94 99 98 97 102 103 103 103 101 100 100 100 101 101 102 100 99 98 96 97 100 101 102 101 89 73 61 58 57 52 47 44 44 46 49 52 51 49 53 58 63 69 74 77 80 82 83 82 81 80 78 77 75 74 75 77 79 80 82 82 82 80 76 74 73 68 62
100 100 100 99 104 108 102 100 101 96 93 95 93 95 98 98 99 100 102 104 100 98 99 99 98 99 99 100 100 100 100 99 100 99 100 101 98 98 100 99 98 100 95 79 64 60 61 58 56 56 54 54 58 61 62 67 77 84 87 90 91 92 94 94 93 92 92 89 85 81 83 88 91 92 93 93 91 91 91 90 88 86 86 83 73
99 99 99 102 106 106 101 98 98 97 94 98 102 99 97 100 103 105 106 104 100 100 100 100 100 99 99 100 100 100 100 100 100 100 99 100 100 100 100 100 99 99 97 91 81 79 84 86 86 80 71 69 74 77 81 88 96 100 100 100 100 99 97 96 94 92 91 89 87 87 91 95 97 98 99 98 97 97 97 96 97 96 97 98 89
100 101 99 103 105 100 98 99 99 100 100 98 99 101 100 100 102 103 104 102 101 101 100 100 99 99 101 100 100 101 101 100 100 100 100 100 101 101 100 101 100 93 88 91 94 97 95 88 82 74 69 74 83 90 96 99 97 94 93 91 89 87 86 86 86 85 84 85 88 94 98 99 99 99 101 101 100 100 99 100 101 100 102 107 99
99 102 102 101 101 99 98 99 99 98 100 100 100 100 99 100 102 101 100 102 103 101 99 100 101 101 101 101 101 101 99 100 100 100 99 97 96 97 98 103 103 91 82 80 78 76 72 65 61 59 57 57 63 73 82 82 77 75 76 76 75 76 79 82 84 84 86 88 92 96 98 98 99 100 102 103 101 101 103 103 102 99 99 100 92
101 102 102 98 98 100 97 97 100 100 99 100 101 101 100 100 101 100 99 100 102 100 99 99 101 101 101 102 102 99 98 101 101 100 97 93 92 95 97 101 103 98 94 90 81 73 69 62 57 54 53 52 57 66 73 75 76 78 83 88 90 90 91 92 91 90 91 93 95 97 98 98 99 100 101 102 102 103 102 95 88 86 86 83 78
101 102 101 98 98 99 98 99 102 100 99 100 102 101 100 100 101 100 99 99 100 101 100 100 101 101 100 101 100 99 99 100 100 101 100 97 97 100 99 99 100 99 101 101 98 96 93 86 76 69 68 71 78 86 90 92 94 97 102 104 102 100 100 99 98 97 97 98 99 99 99 98 99 100 101 104 103 99 91 82 77 80 81 80 81
102 102 101 100 99 99 99 101 102 100 99 100 101 100 100 101 102 101 99 99 99 99 100 101 101 99 99 100 100 100 100 100 99 100 101 100 100 100 100 99 99 100 100 100 100 101 101 100 96 90 86 88 92 97 99 99 100 105 109 105 101 103 103 100 100 101 101 101 100 100 100 101 103 104 104 105 103 96 90 88 89 92 93 94 96
102 102 101 99 98 99 100 101 101 101 100 100 102 102 99 100 102 101 99 98 99 99 100 102 102 100 100 100 100 100 100 100 100 100 100 101 100 100 101 101 100 100 101 101 100 100 100 100 100 99 98 98 99 99 100 99 101 106 108 102 100 104 105 104 105 104 103 103 103 104 104 104 104 105 104 103 102 101 101 100 99 101 102 102 102
101 101 102 99 98 98 100 100 101 102 101 100 102 103 100 98 100 101 99 99 100 99 99 100 103 103 101 100 100 100 99 99 100 100 100 100 99 99 99 100 100 100 100 100 100 100 101 100 99 99 100 100 99 100 101 100 100 103 104 100 100 102 103 104 104 103 102 102 102 103 102 101 101 101 102 102 102 102 102 101 100 101 102 103 102
100 100 101 100 99 98 99 100 101 104 105 101 100 103 103 99 99 101 101 98 97 98 99 101 102 101 100 101 101 101 101 101 100 100 100 100 100 100 100 100 100 100 100 100 100 100 100 100 100 100 100 100 100 100 100 101 100 101 102 100 100 100 100 101 101 101 100 99 100 101 100 101 102 101 100 101 100 101 102 102 102 101 101 105 107
100 101 101 100 100 97 97 100 102 104 107 103 99 102 102 97 93 97 101 99 92 87 89 96 102 102 101 101 101 101 100 99 99 100 100 100 100 100 100 100 100 100 100 100 100 100 100 100 100 100 100 101 101 100 99 100 100 100 100 100 101 101 101 100 99 100 100 100 101 101 101 102 103 105 107 105 102 105 106 104 104 103 101 103 105
99 101 101 100 100 96 94 97 101 104 107 104 100 101 103 97 88 83 88 96 98 89 83 87 96 100 100 100 101 104 104 102 100 99 99 100 100 100 100 100 99 100 100 100 100 100 100 99 100 100 101 101 101 101 100 100 99 100 101 100 98 99 100 100 100 100 101 101 101 101 103 103 103 108 113 108 105 107 104 98 96 95 91 89 89
100 100 100 100 101 98 93 94 98 102 104 103 100 101 103 101 94 82 73 75 85 92 93 91 92 96 100 102 101 103 106 107 105 103 102 101 100 99 100 100 99 100 100 100 100 100 101 101 100 100 100 100 100 100 100 99 100 101 103 100 96 96 99 100 100 100 100 101 101 102 104 104 106 110 110 104 103 103 97 89 83 78 77 77 75
104 102 101 100 101 100 96 96 99 100 102 104 103 101 101 101 99 92 79 66 61 65 72 76 79 84 92 99 102 103 104 104 104 104 104 104 104 103 101 100 100 99 99 99 99 98 99 100 100 100 101 101 101 101 100 100 101 101 101 101 100 100 100 101 101 102 103 104 105 106 106 106 107 108 106 104 103 97 88 79 73 72 74 77 77
106 107 104 102 102 101 99 100 101 98 98 104 106 104 103 102 99 98 95 86 73 65 61 60 63 70 80 91 99 103 105 106 106 105 103 104 107 108 106 103 102 100 100 102 103 102 101 101 100 100 99 99 99 100 100 100 100 100 100 99 99 101 102 103 103 103 104 105 105 107 108 105 102 102 103 104 99 88 79 74 73 78 84 87 89
104 108 105 102 102 103 100 99 100 96 93 98 106 107 106 104 102 101 102 101 97 93 87 78 70 68 72 81 90 97 102 105 107 107 107 106 107 108 109 108 107 104 102 101 101 101 100 99 97 96 97 99 101 102 102 101 100 100 100 101 103 104 105 105 104 103 104 106 106 104 101 98 97 100 101 97 88 79 75 74 79 86 90 91 92
97 106 107 103 101 103 102 99 99 98 93 91 96 100 101 101 102 102 102 100 99 99 100 98 92 82 76 76 81 90 99 104 106 105 105 106 105 106 106 106 105 104 102 99 97 98 100 101 101 101 101 101 100 98 96 94 94 94 97 100 103 105 104 104 103 104 105 104 101 98 96 96 94 91 86 79 72 69 70 74 80 86 88 89 90
90 99 104 104 104 105 107 105 103 103 100 95 93 93 94 97 100 104 103 97 92 91 90 93 97 96 90 83 79 81 89 98 104 105 105 106 104 102 102 101 98 96 95 93 93 94 97 98 98 96 95 93 93 92 91 90 92 95 97 99 101 103 105 104 103 104 104 102 100 99 97 92 84 76 72 70 71 76 81 85 91 97 101 104 104
94 96 98 102 105 105 105 106 106 104 99 95 94 93 93 95 96 98 99 94 90 86 79 74 77 83 86 86 84 82 83 89 97 102 105 107 105 101 101 100 98 96 95 93 91 91 92 94 95 95 96 97 98 100 99 99 100 102 104 103 102 102 101 98 95 95 94 93 92 89 81 73 67 66 67 70 74 80 83 85 90 94 98 101 99
100 100 98 99 102 102 100 99 101 102 97 94 94 94 95 96 92 88 89 89 88 85 79 73 70 69 69 70 74 78 80 83 87 92 96 101 103 105 106 105 103 103 103 102 100 99 99 100 101 103 105 106 106 105 103 101 101 101 101 98 93 87 81 76 73 72 71 70 68 66 64 63 65 66 68 69 70 70 70 70 71 74 77 80 80
100 101 101 100 102 102 100 97 98 100 99 99 99 98 97 99 96 92 92 94 95 93 91 88 86 82 79 75 73 72 74 76 79 83 86 91 95 99 102 104 105 107 107 107 106 104 104 105 105 105 106 107 106 104 102 102 101 97 90 82 74 67 63 61 61 62 63 64 65 67 69 71 73 73 73 72 71 70 69 68 67 69 72 75 77
101 100 100 101 101 101 101 99 99 100 100 101 101 100 100 101 101 99 99 101 102 102 101 100 100 99 97 95 93 92 91 92 92 92 92 93 95 96 98 99 101 103 105 104 104 103 102 103 103 102 103 104 105 103 101 98 92 83 73 66 64 64 65 67 68 69 70 71 72 73 74 75 75 75 74 72 71 70 69 68 67 67 70 74 76
102 102 102 101 100 101 102 102 102 102 102 101 101 102 102 102 102 101 102 102 103 103 103 101 100 101 101 102 106 108 106 102 100 97 96 96 97 98 98 97 95 94 93 92 92 92 93 93 94 94 94 95 93 89 85 80 74 70 69 71 73 75 76 77 76 75 74 73 72 71 72 72 71 71 69 68 67 67 65 64 62 63 65 67 70
98 101 102 102 101 101 101 102 101 101 102 102 102 104 103 102 102 102 102 101 100 100 101 101 100 102 103 104 106 106 104 102 101 100 99 98 97 97 97 96 93 90 88 87 86 86 85 84 85 84 83 82 80 78 77 77 79 80 82 83 82 80 77 75 73 71 68 67 66 66 66 66 66 66 66 65 63 62 61 58 56 55 55 56 57
89 91 95 99 102 103 102 102 101 101 101 101 100 100 100 100 100 100 100 101 101 101 101 100 101 101 102 102 103 104 106 108 109 106 104 103 101 99 97 95 92 90 88 88 88 87 86 84 83 82 82 83 85 87 87 86 86 84 81 80 79 76 73 70 68 66 65 65 65 65 64 63 63 62 61 60 58 56 54 52 49 47 46 47 49
86 86 86 89 93 96 98 100 101 102 104 104 102 103 103 103 102 102 102 103 104 104 103 103 103 104 105 107 108 107 108 109 109 109 110 109 106 104 102 100 100 100 99 97 96 94 93 92 91 90 89 88 86 86 84 82 80 78 76 75 74 74 73 72 70 68 67 67 66 64 61 58 55 53 51 50 48 46 45 44 43 42 41 42 43
Wind_Speed
56 58 60 62 62 62 62 62 61 59 57 55 54 52 51 51 50 48 47 46 46 45 45 44 44 43 42 42 41 41 41 41 41 39 38 36 35 34 34 33 33 32 32 33 33 33 33 33 31 30 30 30 30 30 31 32 31 28 23 20 17 14 14 13 13 17 22 21 20 22 22 21 20 19 18 16 14 13 13 14 16 18 20 22 25
55 57 59 59 58 58 57 57 56 56 55 53 51 50 49 48 48 46 45 44 44 44 44 43 43 42 42 42 42 41 41 41 40 39 37 37 36 35 35 34 33 32 32 33 33 33 33 32 30 30 30 30 30 30 31 31 28 24 21 18 16 14 13 13 16 20 21 19 18 20 20 18 17 18 18 17 17 16 16 17 18 20 21 21 23
54 56 56 54 53 52 52 52 52 52 52 50 49 47 46 46 46 44 43 43 43 43 43 43 43 42 42 42 41 41 42 41 40 39 38 37 36 35 34 33 33 33 32 33 33 33 32 31 30 29 29 29 30 30 29 28 25 22 19 18 17 16 15 15 18 20 20 18 17 18 19 16 15 17 18 19 19 19 19 19 20 23 24 24 25
51 51 50 48 48 48 47 47 47 48 47 46 45 44 43 44 44 43 42 42 42 42 42 42 42 42 42 40 40 40 40 40 40 39 39 38 36 34 33 33 34 34 33 34 33 33 32 31 29 28 27 27 27 28 27 26 23 21 20 20 19 19 18 18 19 20 20 18 17 18 18 17 15 14 16 20 22 22 22 21 22 25 27 28 29
47 47 46 45 46 46 45 44 44 44 43 42 42 41 41 43 43 43 42 41 41 41 41 42 42 42 41 39 38 38 37 38 39 39 38 37 35 34 34 34 35 35 35 35 34 33 31 30 28 26 25 25 25 26 25 24 23 22 22 22 21 21 20 20 20 21 20 19 18 18 18 18 17 15 14 15 18 21 24 25 25 27 27 28 29
46 45 44 45 45 44 43 42 41 41 40 40 40 40 40 41 42 42 42 41 41 41 41 42 42 42 41 39 37 35 35 36 37 37 37 37 36 36 36 36 37 37 37 36 35 33 31 28 26 25 24 24 24 24 23 23 23 24 24 24 23 23 21 21 21 21 21 20 19 18 19 20 19 17 16 15 15 16 19 24 28 30 32 32 33
45 44 44 44 43 42 41 40 39 39 39 39 39 40 40 40 41 42 42 41 41 41 41 41 42 42 42 40 38 36 36 36 36 37 38 38 38 38 38 37 37 37 37 36 35 32 29 27 25 25 24 23 22 21 21 22 23 25 25 25 24 24 23 22 22 22 22 21 20 20 21 21 20 19 18 17 16 16 17 20 24 29 33 36 38
46 45 43 42 41 41 40 39 37 37 38 39 39 39 39 40 40 41 41 41 41 41 40 41 42 42 42 42 42 40 38 37 36 37 38 39 39 39 38 37 36 35 34 33 31 29 28 26 26 26 25 23 21 20 19 21 23 24 25 24 23 23 22 22 21 22 24 23 22 22 22 23 22 21 20 19 17 16 17 18 21 24 27 31 35
46 44 42 41 41 41 39 37 36 36 37 38 38 39 39 39 39 40 40 41 41 41 40 41 42 42 42 43 44 44 42 40 39 40 41 41 40 39 38 36 35 33 31 29 28 27 26 26 25 25 24 22 21 19 19 20 21 22 23 23 22 21 22 21 21 23 25 25 24 24 25 25 24 23 22 20 19 18 17 18 20 22 24 26 28
44 42 40 39 39 39 38 36 35 36 37 37 37 38 38 39 39 39 40 40 40 41 41 41 42 42 42 43 44 45 44 43 43 44 44 43 41 39 37 35 33 31 28 27 27 26 26 25 25 24 23 21 21 20 20 20 20 21 22 23 23 22 22 22 22 24 26 27 27 27 27 27 26 24 23 22 21 20 19 19 20 21 23 24 25
41 39 37 37 37 37 36 35 35 35 36 35 35 36 37 39 39 39 39 39 40 40 41 41 42 43 43 43 43 43 44 44 45 45 44 42 39 37 35 33 31 29 28 27 27 27 26 25 25 24 22 21 21 20 20 20 21 22 23 24 25 24 24 23 24 26 28 29 30 30 30 28 27 25 25 24 22 21 21 21 21 22 22 23 24
37 34 32 33 35 36 36 35 34 34 34 34 34 35 37 38 39 38 38 39 39 40 40 41 42 42 42 42 42 42 42 42 43 42 41 40 38 36 35 33 31 29 28 28 28 28 27 25 25 24 22 21 21 20 19 20 21 23 25 26 27 27 26 26 26 28 30 31 32 32 31 29 28 26 26 25 24 23 23 23 23 23 24 24 25
31 25 22 27 33 36 37 36 34 32 32 33 34 35 37 39 38 38 38 38 39 39 40 40 41 41 42 42 42 41 40 40 40 40 39 38 37 36 35 34 32 30 30 30 30 29 28 26 25 25 24 23 22 21 20 21 22 24 25 27 28 28 28 28 28 29 31 33 34 33 31 29 28 28 27 26 25 24 24 25 25 26 26 26 26
26 21 23 32 37 36 34 33 32 31 29 32 35 36 37 39 39 38 39 39 39 40 40 40 40 40 40 41 40 40 39 38 38 38 38 37 37 36 36 35 34 33 33 33 32 31 30 28 28 27 26 26 24 23 23 24 24 25 26 27 28 28 28 29 29 31 32 33 34 33 32 31 29 29 28 28 27 26 26 27 27 27 28 28 28
27 28 32 39 41 37 33 30 28 26 24 28 33 36 38 39 39 39 39 40 40 41 41 40 39 40 39 39 39 39 38 37 37 37 38 38 38 37 37 37 36 36 35 34 33 32 31 30 29 28 28 27 27 27 26 27 27 27 28 28 28 29 29 30 31 32 33 34 34 34 33 32 31 31 31 30 29 28 28 28 28 29 29 29 29
26 31 33 37 40 39 35 32 26 18 17 24 30 33 38 40 40 38 37 39 39 40 43 41 40 40 39 38 38 37 37 36 36 36 38 39 39 39 39 38 37 36 35 34 33 32 31 31 30 29 29 29 29 29 29 28 28 28 28 28 29 29 30 31 32 33 34 34 34 34 34 34 33 33 33 32 32 30 30 30 30 30 30 29 29
26 32 34 36 39 39 38 36 29 18 19 30 33 33 37 39 38 36 34 36 38 41 45 44 42 41 40 39 37 36 35 35 34 35 36 37 38 38 38 37 36 35 34 34 33 32 32 32 32 31 30 29 29 29 29 29 28 28 28 28 28 29 30 32 32 33 35 35 35 35 35 34 34 34 34 34 33 33 33 32 32 32 30 28 29
31 34 37 38 38 38 37 37 34 28 29 38 41 39 39 38 35 32 29 32 37 41 44 44 42 41 40 38 36 34 34 34 35 35 36 37 38 38 37 37 36 36 35 34 33 33 32 31 31 30 29 29 29 29 29 29 28 28 28 29 30 31 32 33 34 34 35 36 36 35 35 34 34 35 35 36 35 35 35 35 35 33 31 29 29
35 37 39 40 40 38 37 37 38 35 34 39 44 45 44 41 37 33 29 32 36 37 37 38 38 38 37 37 36 36 36 37 38 38 38 38 38 37 37 37 37 36 36 35 34 33 32 32 31 31 30 30 29 30 30 29 28 29 29 31 32 33 33 34 35 35 36 36 35 35 34 34 35 35 36 36 36 36 35 36 36 34 32 32 32
31 36 39 41 43 43 41 39 38 36 35 36 40 43 43 39 35 34 35 37 38 35 32 30 29 30 32 33 34 35 37 38 38 38 38 38 37 37 37 37 37 37 37 37 36 36 35 34 34 33 31 31 30 30 29 27 27 28 30 31 31 32 33 33 34 35 35 34 34 34 34 35 36 36 36 36 36 35 35 36 36 35 34 35 36
29 37 41 43 45 46 45 44 42 39 38 36 37 40 41 38 36 37 39 40 40 38 33 29 27 26 26 28 30 32 33 34 35 36 37 37 38 38 38 38 38 37 38 37 37 36 35 34 34 33 32 31 30 28 26 27 29 30 30 30 30 30 31 32 32 32 32 32 32 34 35 36 37 38 38 38 38 38 38 38 38 37 37 39 40
30 38 44 44 43 43 42 42 41 39 37 35 35 37 39 40 40 42 42 41 41 40 35 29 27 27 27 29 32 33 32 32 33 34 35 36 37 38 39 38 38 38 37 36 35 34 34 33 33 32 31 30 29 27 28 30 32 31 30 29 29 29 30 31 31 31 31 32 34 36 37 38 39 40 41 41 42 41 41 41 40 40 42 44 45
37 40 43 43 43 42 41 40 38 36 33 31 31 33 37 39 38 40 41 39 39 42 40 36 33 33 33 33 34 34 34 34 35 36 36 36 37 38 40 40 39 38 38 37 36 35 34 33 31 30 29 29 29 30 32 34 33 32 31 30 30 30 30 31 31 33 34 35 37 38 39 40 41 42 43 44 44 44 44 44 44 45 46 47 47
42 40 38 38 39 40 40 39 35 31 30 29 29 31 35 37 36 37 37 36 37 39 42 42 40 37 35 33 32 34 35 36 36 36 36 37 38 38 40 40 40 39 39 39 38 37 35 33 31 31 31 32 33 34 35 35 34 34 33 32 32 32 32 33 34 36 37 39 41 41 42 42 43 44 45 45 46 46 47 47 48 49 50 50 50
44 43 39 37 36 36 35 33 28 25 27 30 32 32 33 34 35 36 36 36 37 37 39 40 38 36 34 33 33 36 37 37 35 34 35 36 37 38 38 38 38 38 38 39 39 37 36 35 34 35 35 35 36 36 36 35 35 35 34 34 34 34 35 37 38 40 41 43 44 44 44 44 44 45 45 46 47 49 50 51 52 53 53 52 52
43 44 40 37 36 33 30 26 24 22 22 27 32 34 33 34 34 34 35 37 38 38 38 37 36 35 35 35 36 37 38 37 35 34 35 37 38 39 38 37 36 37 38 38 38 37 36 36 37 37 38 38 37 36 35 34 35 35 35 36 37 38 39 41 42 43 44 45 46 45 45 45 45 45 46 47 49 51 52 54 56 57 58 57 56
44 43 39 36 35 32 27 23 22 23 23 25 30 33 34 35 36 36 37 37 39 40 39 38 37 37 38 38 37 37 38 38 36 35 35 37 39 40 39 39 39 38 38 37 37 36 37 38 38 39 39 38 37 36 35 35 36 38 38 40 41 42 43 44 44 45 46 46 46 46 45 44 45 46 47 49 51 52 54 56 58 60 61 62 61
46 44 41 38 36 33 30 27 26 27 28 29 30 31 32 34 38 40 39 39 42 43 42 40 40 41 42 41 39 38 40 41 39 38 38 39 40 41 42 44 46 46 44 42 40 40 40 42 42 42 41 39 38 37 37 38 40 41 42 43 44 45 46 46 46 46 47 47 46 45 45 45 46 47 49 51 53 54 57 59 61 63 65 66 65
50 47 43 39 38 36 36 34 31 30 30 31 33 33 32 34 40 42 42 43 45 46 43 41 41 42 43 42 42 42 43 43 43 43 43 43 44 45 46 47 49 50 50 49 48 48 49 50 50 48 47 45 44 43 43 44 45 45 46 47 47 47 47 47 47 48 48 47 46 46 46 47 48 49 51 53 55 58 60 63 65 67 68 67 66
52 49 44 42 41 40 40 39 36 35 34 35 39 40 38 37 40 43 44 44 46 46 45 44 43 44 43 43 42 42 43 45 46 47 46 46 47 48 47 46 46 46 47 47 48 49 51 52 53 51 50 49 48 47 47 47 47 47 47 47 47 48 48 49 49 49 49 48 48 48 48 49 50 52 54 56 59 63 66 68 68 68 68 67 67
54 52 48 47 46 44 42 41 39 37 36 37 42 46 45 44 44 45 46 46 45 46 46 46 45 44 44 43 42 42 44 45 45 45 45 46 46 47 46 44 42 42 43 44 45 47 48 51 53 52 50 48 47 46 46 46 47 47 47 48 49 50 51 51 51 50 49 49 49 50 51 52 54 56 59 63 66 69 70 69 68 67 68 69 69
55 56 53 52 50 47 45 44 41 39 40 41 45 49 52 51 50 51 52 51 49 49 48 48 47 45 44 43 42 42 44 45 44 45 46 46 47 48 48 47 45 44 45 47 48 49 51 52 53 52 49 47 45 45 46 47 48 49 50 51 51 52 52 52 51 51 51 51 52 54 56 58 61 64 66 69 70 71 70 69 69 70 71 72 73
56 59 57 55 54 50 46 46 46 44 45 47 49 52 56 55 53 54 56 55 53 51 50 50 49 48 47 47 46 45 45 45 46 47 48 49 49 49 51 52 51 50 50 51 52 53 53 52 51 49 48 47 47 48 50 51 51 52 52 53 53 54 54 54 54 54 55 56 58 60 62 64 67 69 70 71 72 72 73 74 74 75 76 78 79
57 60 59 58 57 53 49 49 50 49 50 52 54 57 60 59 56 55 57 57 55 53 52 51 52 52 51 52 52 51 50 49 48 47 48 49 49 49 51 54 54 53 53 53 54 55 55 55 54 52 52 52 52 52 53 53 53 54 55 56 56 57 58 58 59 59 60 61 63 65 67 69 70 71 72 73 74 75 77 78 79 80 81 82 83
60 60 60 59 59 58 54 52 52 53 53 55 57 61 64 65 62 59 59 59 59 58 55 55 55 55 55 55 55 55 55 55 53 51 51 52 51 51 53 55 56 57 57 57 57 58 58 57 57 56 56 56 55 55 54 55 56 56 57 58 58 59 60 61 62 64 64 66 67 70 72 74 75 76 76 76 77 78 79 81 82 83 84 84 84
63 62 62 61 60 61 60 57 56 56 56 58 60 62 65 68 67 65 63 62 63 62 60 58 58 58 59 59 59 59 59 58 57 56 56 56 56 56 56 57 57 59 60 60 60 60 60 60 59 60 60 59 59 58 58 58 58 59 60 61 62 63 64 65 66 68 69 71 73 75 77 79 80 81 81 81 81 82 83 84 85 86 85 85 85
66 65 65 65 63 63 63 62 60 59 59 60 62 63 65 66 68 68 66 64 64 64 62 61 61 61 61 62 62 64 64 62 61 60 59 60 60 60 60 60 60 60 60 60 61 61 62 62 62 63 64 63 62 62 62 62 63 63 65 66 68 68 69 70 72 73 75 77 78 80 82 83 84 84 84 85 85 85 86 86 86 86 86 85 85
69 68 69 69 68 67 66 65 64 63 62 62 63 65 66 66 66 67 68 67 66 65 64 63 63 64 64 64 65 66 66 66 65 64 64 64 64 64 64 64 64 65 65 65 65 65 66 66 66 67 68 68 68 68 69 69 70 70 71 73 73 74 75 76 78 79 81 82 84 85 86 87 87 87 88 88 88 88 87 86 86 85 84 84 85
72 72 72 72 72 71 69 68 67 67 65 65 65 66 68 69 68 68 69 69 67 66 66 65 65 65 65 66 67 68 68 69 68 68 68 68 68 69 69 69 69 70 71 72 72 72 72 73 73 74 75 75 76 76 76 77 77 77 78 78 79 79 81 82 84 86 87 88 89 90 91 91 92 92 92 91 90 89 87 86 85 83 82 82 83
70 72 73 74 75 75 74 71 71 71 70 68 67 68 70 71 71 71 71 71 70 69 69 69 69 68 68 68 68 69 70 70 71 72 72 72 73 73 74 74 75 76 76 77 79 79 79 80 81 82 83 83 83 83 83 83 84 84 85 86 86 87 88 90 91 92 93 95 96 96 96 96 96 95 93 92 91 89 87 84 83 81 80 81 81
66 68 70 71 73 75 76 76 74 74 74 73 72 71 72 73 73 73 73 73 72 72 73 73 73 72 71 71 71 71 71 72 72 73 74 75 76 77 77 78 79 80 80 82 83 84 84 85 86 87 88 88 88 89 89 90 91 92 93 93 93 94 94 95 97 98 100 100 100 100 99 98 97 95 94 92 91 88 85 82 80 80 80 81 81
65 65 67 68 69 70 73 75 77 77 77 77 77 76 76 77 77 77 78 77 76 75 75 75 75 74 74 75 75 74 74 74 74 74 75 76 78 79 80 81 82 82 83 84 85 86 87 88 89 90 91 91 92 93 94 95 96 96 97 97 98 99 100 101 102 102 103 102 102 101 100 99 97 96 94 92 90 88 85 82 81 81 82 83 84
63 64 65 66 66 66 68 70 74 77 79 80 80 80 79 80 80 80 81 81 80 80 79 78 76 76 76 76 77 77 78 78 77 77 77 78 79 80 82 83 84 85 85 86 87 88 89 90 91 92 93 94 95 96 96 97 98 99 100 101 101 102 103 103 103 102 102 101 100 100 99 98 96 94 92 90 88 86 85 83 82 83 83 83 86
62 63 64 64 64 65 65 65 68 72 76 79 81 82 82 82 81 81 81 81 82 82 83 82 80 80 79 78 77 78 79 80 81 80 80 81 81 82 83 85 86 87 88 88 89 89 90 92 93 94 95 96 97 97 98 99 100 101 102 102 103 103 103 103 102 101 100 99 98 98 96 95 93 92 90 89 87 86 86 85 85 85 85 86 89
64 65 66 65 64 64 64 62 60 61 63 65 67 70 73 75 76 77 76 77 77 77 78 78 77 77 77 77 77 77 78 80 81 82 83 83 84 85 86 87 88 90 90 91 92 92 93 94 95 96 97 98 100 101 101 102 102 103 103 104 104 105 105 104 103 101 99 98 96 95 94 93 92 92 92 91 91 90 90 90 89 89 89 91 93
67 68 69 69 68 67 66 64 61 59 58 57 57 58 59 61 63 64 64 65 67 68 68 69 69 70 72 73 73 74 75 76 78 80 81 83 85 86 87 88 89 91 92 93 94 95 96 96 97 98 99 100 101 102 103 103 104 104 104 104 104 104 103 101 100 98 97 96 94 94 93 93 93 94 94 95 95 94 94 94 93 93 93 94 94
70 71 72 72 72 72 71 70 68 66 65 64 63 63 62 62 63 63 63 63 64 66 68 70 71 71 72 73 74 75 76 77 78 79 80 81 82 84 85 87 88 89 90 91 92 93 94 95 96 97 97 98 100 101 102 103 103 103 102 102 101 100 99 99 98 97 97 96 96 96 96 96 96 97 98 98 98 98 98 98 97 96 95 95 95
70 71 73 75 75 75 75 74 73 72 72 72 72 71 71 71 71 71 72 72 73 74 77 78 78 78 79 80 81 82 82 82 82 82 82 82 83 84 85 86 87 88 89 90 91 92 93 93 94 95 96 97 99 100 101 102 102 101 100 100 100 100 100 100 100 100 100 100 100 100 100 100 100 101 101 101 101 101 100 100 99 98 98 97 96
71 71 73 75 77 78 79 78 77 77 77 77 78 78 78 78 78 78 78 79 80 82 84 85 86 86 87 87 87 87 87 87 87 87 87 87 87 88 89 90 90 91 91 92 93 94 94 95 96 96 97 98 99 100 100 100 101 101 101 101 102 103 104 104 104 104 104 104 104 104 104 104 104 104 104 104 103 103 103 102 102 100 99 98 97
74 73 74 76 78 80 82 82 82 82 82 82 82 83 83 83 84 84 84 85 86 88 89 90 92 92 92 92 92 92 92 92 92 91 91 91 91 91 92 93 93 93 93 94 95 95 96 97 97 97 98 98 99 100 101 102 103 103 104 105 105 106 107 108 108 108 108 108 108 107 107 106 106 106 106 106 105 105 104 104 103 101 98 96 95
77 76 76 77 78 80 82 84 85 85 85 85 86 87 88 89 89 89 90 91 91 92 93 94 95 96 96 96 96 95 95 95 95 94 94 93 93 93 93 93 94 94 94 95 95 96 97 97 98 99 99 100 101 102 103 104 106 107 107 108 108 109 110 111 111 111 110 110 110 110 109 109 108 108 107 107 105 104 103 102 100 98 95 93 91
Wind_Direction
250 250 249 249 250 251 253 255 257 258 260 260 260 260 261 261 261 261 261 262 262 262 262 262 262 262 262 261 261 263 264 265 266 267 269 271 272 273 274 275 278 279 281 284 286 289 291 293 293 292 291 290 290 292 295 298 298 297 298 302 303 299 299 294 290 304 316 323 335 347 349 351 353 349 341 329 314 300 284 273 262 257 258 258 259
249 250 250 250 251 253 254 255 256 257 258 258 258 259 259 260 260 260 260 260 260 260 260 260 260 260 260 260 261 261 262 263 264 265 266 268 268 269 270 272 275 278 281 284 286 289 291 291 291 290 289 288 289 292 295 296 295 296 297 298 293 287 287 287 289 300 312 321 335 350 352 342 334 333 334 327 311 296 285 279 271 266 269 268 266
249 250 252 253 254 255 255 256 256 257 257 258 259 259 258 259 259 259 259 258 258 258 259 259 259 259 259 260 261 261 261 262 262 263 263 265 266 267 269 272 276 279 283 285 288 290 291 290 291 290 288 288 290 292 293 292 291 291 291 289 285 281 282 288 292 296 306 315 327 343 350 344 322 305 302 305 304 296 288 281 270 264 265 266 266
249 251 253 254 254 254 254 254 255 256 257 258 258 258 258 258 259 258 258 257 257 257 257 258 258 258 259 260 261 262 262 262 262 262 262 264 265 267 271 275 278 280 283 285 287 289 290 290 291 290 289 289 291 291 290 288 286 283 282 282 281 280 283 290 293 294 300 308 318 332 340 341 336 314 292 283 282 282 281 278 269 261 262 263 263
247 249 251 251 250 251 251 252 253 254 256 256 256 256 256 257 258 258 258 257 257 256 256 256 257 257 258 259 261 262 262 262 262 262 262 263 265 268 273 276 277 279 281 283 285 286 288 290 291 289 289 290 290 289 287 285 282 279 278 278 278 279 284 290 291 289 294 302 310 322 330 330 330 329 316 297 280 272 268 267 263 259 258 260 261
244 246 247 248 249 250 250 251 251 252 253 254 254 254 255 256 257 258 258 257 256 255 256 256 257 256 256 257 258 260 261 260 261 262 262 263 265 269 273 274 275 277 280 282 283 284 285 288 289 288 287 288 288 288 287 284 281 279 277 277 277 278 282 288 288 284 288 297 304 313 322 323 321 319 319 318 309 295 280 270 263 260 259 259 260
242 243 245 247 249 250 251 251 250 251 252 253 253 254 254 255 257 258 258 258 257 256 255 255 256 256 255 255 256 257 259 260 261 262 263 265 267 271 273 275 276 278 280 280 280 281 283 286 287 286 286 287 288 288 287 285 282 280 279 278 277 278 281 284 284 279 283 293 301 309 314 316 316 315 312 313 315 314 306 291 277 268 264 263 263
242 242 243 245 247 248 249 249 250 251 252 253 254 255 255 255 256 258 258 258 258 257 255 255 255 255 255 254 255 257 259 260 262 263 265 267 270 273 275 277 278 279 280 279 278 279 281 284 285 286 287 288 289 289 287 285 283 282 281 280 279 279 281 282 279 276 281 292 300 306 310 310 311 310 309 309 310 310 308 301 291 281 273 269 267
244 244 244 245 246 247 248 248 248 249 250 251 253 254 255 256 256 256 257 258 258 258 257 256 256 255 255 254 255 257 259 261 262 264 266 269 271 274 276 278 279 279 278 277 277 279 281 283 285 286 288 289 289 287 286 284 283 282 282 282 283 282 281 281 277 275 283 293 300 303 304 306 307 306 304 304 304 305 304 300 295 289 284 279 275
246 247 247 248 249 250 250 249 248 248 248 249 251 253 254 255 256 256 256 256 257 257 257 257 258 257 256 256 256 257 259 260 262 264 267 270 272 274 275 275 276 276 275 275 276 278 279 281 283 286 288 289 288 286 285 283 281 280 281 283 283 282 281 280 279 280 286 293 297 299 301 302 303 302 301 301 301 300 299 298 295 291 288 287 284
246 247 248 251 252 253 253 251 249 249 250 250 251 253 254 255 256 256 256 256 257 258 258 258 258 259 259 259 259 259 260 261 263 265 267 269 270 271 271 271 271 272 272 273 275 277 278 280 281 283 286 287 286 286 284 282 280 279 280 281 281 282 282 282 283 284 288 291 293 296 298 300 300 298 298 299 300 298 296 296 294 292 290 289 288
245 247 252 255 256 255 254 252 251 250 251 252 252 253 254 255 256 256 256 256 256 257 258 259 260 260 261 262 262 262 262 263 263 264 265 266 266 266 267 267 268 270 272 274 276 278 279 280 281 283 285 286 287 287 286 283 281 280 280 280 281 283 283 284 285 285 287 289 292 295 297 297 297 296 296 298 298 296 294 294 294 293 292 291 290
243 247 252 254 254 254 252 250 250 250 252 253 253 253 254 255 256 257 258 258 258 259 259 260 261 262 263 264 264 264 264 264 263 263 263 263 263 264 264 265 267 270 273 276 277 278 278 279 281 283 285 287 287 288 287 285 284 283 282 281 281 282 283 284 285 286 287 289 291 294 295 296 295 294 295 295 295 293 291 291 292 294 294 293 292
233 224 221 231 240 247 251 252 250 249 254 258 257 256 255 257 258 259 260 261 262 262 262 262 262 263 263 264 264 265 265 265 264 263 263 263 263 263 263 265 267 270 273 275 275 276 277 278 280 282 284 285 285 285 285 285 285 285 283 281 281 282 283 284 285 286 287 288 291 293 294 294 293 293 293 293 293 291 289 289 292 294 295 294 293
229 219 215 225 233 241 250 255 255 254 258 264 266 265 262 260 261 263 265 266 267 268 267 265 265 265 264 264 264 264 264 265 265 265 264 264 263 263 264 265 268 270 272 272 274 276 278 279 280 281 282 283 284 284 284 284 285 284 282 281 281 282 283 284 285 286 286 287 289 290 291 292 292 291 292 292 292 291 289 288 290 293 293 293 292
239 232 226 231 235 238 244 250 255 258 257 259 264 266 263 261 261 263 265 268 270 271 270 268 267 266 266 265 265 265 265 265 265 265 264 264 264 265 266 267 268 269 270 270 272 275 277 279 280 281 282 282 283 283 283 284 284 283 281 281 282 284 285 285 284 283 284 285 287 288 289 290 291 292 292 293 292 291 289 288 289 291 291 290 290
237 238 234 236 238 238 241 246 248 238 230 240 246 252 256 258 259 258 262 267 269 268 268 269 269 268 267 266 266 266 266 265 264 263 264 264 266 267 267 268 268 268 269 270 271 273 275 277 278 280 280 280 281 282 283 283 282 281 282 284 286 287 287 286 283 281 281 283 285 287 289 290 291 291 292 292 292 290 289 288 289 289 288 288 290
219 229 232 236 238 238 241 245 245 233 224 231 236 241 248 253 256 257 259 262 262 262 265 266 266 266 265 264 263 263 263 262 262 263 264 265 267 268 268 269 270 270 270 270 270 271 272 273 275 276 277 279 280 281 282 283 284 285 288 290 291 290 289 286 283 281 281 283 285 287 289 290 291 292 292 293 292 291 290 288 288 287 284 286 291
222 227 233 236 238 239 242 244 243 238 232 233 236 239 244 248 254 256 251 245 247 253 258 259 259 260 260 259 258 257 257 258 260 263 265 267 269 270 269 269 269 269 268 268 268 269 269 270 272 275 277 279 281 282 283 284 286 290 293 295 294 292 289 286 284 283 283 285 287 288 290 291 293 294 295 295 294 293 291 289 287 282 280 286 292
245 243 244 243 240 240 243 245 245 244 243 243 243 244 247 249 251 252 249 243 242 246 248 249 253 256 257 257 256 257 260 263 265 266 266 267 267 267 266 266 266 266 265 266 267 269 270 272 274 276 278 280 281 282 282 284 289 294 296 297 296 294 292 290 288 286 286 286 288 290 293 295 296 297 298 299 298 295 292 290 286 279 278 286 291
259 255 251 249 245 243 246 250 251 252 254 256 255 252 251 249 245 246 248 244 242 243 243 242 246 250 254 259 264 268 269 268 266 265 264 264 263 262 262 262 263 264 265 268 270 271 273 274 277 278 279 280 279 278 279 286 293 297 298 297 297 296 295 293 291 289 287 287 289 293 296 297 298 299 300 301 302 300 297 294 288 280 278 285 290
244 247 247 247 246 246 249 252 253 256 258 259 260 258 255 251 246 244 245 243 240 239 238 237 239 244 252 263 271 272 266 260 258 259 259 260 260 260 260 262 263 265 267 268 270 271 273 275 277 277 277 276 274 275 282 291 296 297 297 296 296 295 293 292 290 289 288 289 291 294 296 297 298 299 300 301 302 302 301 298 294 287 283 285 288
230 238 243 245 245 248 252 255 256 258 259 256 255 255 256 255 250 246 246 244 240 236 234 237 243 248 255 263 266 263 257 255 256 257 257 258 259 261 264 265 267 268 268 269 270 271 273 274 274 274 273 273 275 281 289 294 295 296 296 296 296 294 292 290 288 287 288 290 292 294 295 296 297 298 298 299 299 299 301 301 300 296 291 288 287
227 233 240 243 245 250 255 257 258 260 260 255 250 249 252 254 253 250 247 244 239 235 235 239 244 249 253 255 254 254 256 258 260 260 260 259 260 263 265 266 267 267 268 270 272 273 273 272 271 271 273 276 281 287 292 292 293 295 296 296 295 292 291 289 289 289 290 292 293 293 293 294 295 296 296 296 296 297 298 300 302 301 298 292 288
225 229 234 238 243 250 253 253 256 263 267 263 258 253 251 253 252 250 246 242 240 239 238 240 243 245 245 243 245 253 259 260 262 262 260 259 258 259 261 263 265 265 266 269 271 271 270 269 269 271 274 278 282 287 290 290 293 295 295 294 293 291 291 291 291 290 291 292 292 292 292 292 293 294 295 295 295 295 296 297 299 301 301 297 291
221 226 230 235 241 245 246 249 256 266 269 265 261 256 251 250 250 246 243 239 238 239 242 243 243 242 239 239 245 253 256 257 259 260 258 256 257 257 257 258 261 262 263 266 267 267 267 268 269 270 273 276 281 286 287 289 291 291 291 290 290 289 290 291 292 291 291 292 293 294 293 292 291 292 293 294 295 294 294 294 295 298 300 300 296
220 224 227 234 239 238 236 241 247 249 245 244 251 256 254 252 250 245 240 238 238 239 239 240 239 238 238 240 244 249 251 251 254 256 255 252 253 254 254 254 255 256 259 262 263 264 266 267 268 270 273 277 281 283 284 286 289 290 290 289 290 291 292 292 293 293 294 295 295 295 294 291 290 290 291 293 294 294 293 293 294 296 299 300 299
220 221 224 231 234 229 224 226 229 232 233 234 242 251 253 253 252 247 240 237 239 239 238 238 237 236 237 239 241 243 247 249 250 251 251 250 250 252 256 258 258 257 257 258 259 261 266 269 270 272 275 279 281 281 282 285 289 291 291 292 292 293 293 293 293 294 295 296 295 294 292 289 288 289 290 293 294 294 294 294 295 296 298 299 299
220 220 221 225 226 222 219 221 223 227 231 232 236 241 244 247 249 249 243 238 239 240 239 239 239 239 240 241 241 243 246 250 251 251 252 254 256 258 261 264 266 266 264 262 261 262 266 270 272 273 276 278 280 280 279 282 287 290 292 294 294 293 293 292 293 294 295 295 294 293 290 288 288 289 290 293 294 295 296 296 296 297 297 297 297
221 220 218 219 222 222 221 221 225 229 230 230 233 235 236 237 242 246 246 242 240 241 242 242 242 242 243 245 247 248 250 253 254 255 257 260 264 265 265 265 268 271 272 272 271 271 271 272 274 276 278 281 282 281 281 283 288 291 293 294 293 292 292 292 293 294 294 294 293 291 290 289 289 289 290 292 294 296 296 296 296 296 296 296 296
220 219 217 217 221 225 225 225 228 230 228 228 231 233 233 234 237 241 244 243 242 242 242 241 241 241 244 248 252 252 251 253 256 258 260 262 264 264 265 265 266 267 270 272 275 276 276 277 279 281 283 283 284 284 285 287 289 290 291 291 291 291 290 291 292 293 292 292 291 290 290 289 289 290 291 292 294 295 295 294 294 293 293 294 295
220 219 217 217 221 227 230 229 228 227 225 226 229 231 233 235 237 240 243 246 246 245 242 241 240 241 243 246 248 248 250 253 256 258 260 261 261 262 264 266 266 265 266 268 270 272 275 278 281 283 284 283 282 282 283 284 285 286 288 289 289 289 289 289 290 290 290 289 289 289 289 290 290 291 291 291 292 293 293 292 292 292 292 293 294
220 220 220 219 221 228 232 229 227 226 225 226 228 229 232 234 236 238 241 244 246 245 243 242 242 242 243 244 244 245 249 254 258 260 262 262 262 262 265 266 266 265 265 266 268 270 272 274 276 278 279 279 278 279 281 282 283 285 286 287 287 286 286 286 286 286 286 286 286 287 287 288 288 289 289 290 291 292 292 292 292 292 292 292 293
222 222 222 222 223 227 230 230 229 228 227 229 231 232 232 232 234 235 237 240 242 242 241 241 241 242 244 246 247 249 251 253 255 257 259 260 260 261 262 263 263 263 264 265 267 268 269 271 272 273 273 275 277 279 280 281 282 284 285 285 284 283 283 284 284 285 285 285 285 285 286 287 288 289 289 290 290 291 291 291 291 291 291 292 293
224 225 226 226 226 228 230 231 231 231 231 231 234 235 234 232 233 234 235 237 240 241 240 240 240 241 243 245 248 250 251 251 252 252 253 254 256 257 258 260 261 262 262 263 264 266 267 269 270 271 272 274 277 278 279 279 280 281 281 282 282 282 282 283 283 284 284 285 285 286 288 289 291 292 292 291 291 292 292 293 292 292 292 293 293
225 227 229 230 230 231 232 232 232 233 234 234 236 238 238 236 234 235 236 237 239 241 241 241 241 242 243 244 246 248 249 250 251 251 251 251 252 254 256 259 261 263 264 264 265 266 267 268 269 270 272 273 275 275 275 275 276 276 277 278 279 280 280 281 282 283 284 284 285 287 289 291 293 293 293 293 293 294 294 294 294 293 293 293 293
226 228 230 231 232 233 233 233 233 234 235 236 238 241 243 243 241 239 238 238 240 241 242 243 244 245 246 246 247 249 251 251 251 251 251 251 252 253 254 256 258 261 263 264 265 266 267 267 268 269 270 271 272 272 273 273 274 275 276 278 279 279 279 280 281 282 283 285 286 288 290 292 292 292 292 293 294 295 295 295 294 293 293 293 292
227 229 231 232 233 234 235 235 235 235 235 237 240 243 246 248 248 247 245 243 242 243 244 247 248 248 248 249 250 251 252 253 253 253 252 252 252 252 253 254 256 258 260 261 263 264 265 266 266 267 268 269 270 271 272 274 275 276 277 278 279 279 279 280 281 282 284 286 288 289 290 291 291 292 293 293 294 294 294 294 293 293 293 292 292
230 231 233 234 235 235 237 237 238 238 238 239 241 243 246 248 249 250 251 250 249 248 248 250 251 252 251 251 252 252 253 254 255 255 254 254 253 253 254 254 255 257 259 261 262 264 265 267 267 268 270 271 272 273 274 275 276 277 278 278 279 280 280 282 283 284 286 287 288 289 290 290 291 292 293 293 293 293 293 292 292 292 291 291 291
233 234 235 236 237 237 238 239 239 240 240 241 242 243 245 247 248 249 251 253 253 253 253 253 253 253 254 254 254 254 254 255 256 256 256 256 255 255 255 256 256 257 259 261 263 264 265 266 267 268 270 271 272 273 274 275 275 276 277 278 279 280 281 282 284 285 286 288 288 289 289 290 290 291 291 292 292 292 292 291 291 290 290 289 289
235 236 238 239 241 242 241 240 241 241 242 242 244 246 247 248 248 249 250 251 252 253 254 254 254 254 254 254 255 256 256 256 256 256 256 256 256 256 256 257 257 258 259 260 262 264 265 266 267 268 269 270 271 272 273 274 276 277 278 279 279 280 280 282 283 284 286 286 287 287 288 289 289 290 290 290 290 290 290 289 289 288 288 287 287
234 237 239 241 243 245 246 244 243 243 243 244 246 248 250 251 251 251 251 251 252 253 254 255 255 255 255 255 256 256 257 258 258 258 259 259 258 258 258 258 258 258 259 260 261 263 264 266 267 268 269 270 271 273 274 275 276 277 278 279 279 280 281 282 283 284 285 286 286 287 288 288 289 289 289 289 289 289 288 288 287 286 286 287 287
233 236 239 241 243 246 248 249 248 247 247 247 248 249 251 253 254 255 255 255 255 255 256 256 256 256 256 256 257 257 257 258 258 259 259 260 260 260 261 261 261 261 261 261 262 263 264 266 267 269 270 271 273 274 275 276 277 278 279 279 280 281 282 282 283 284 285 286 287 287 288 288 288 289 289 288 288 288 287 287 287 287 287 287 287
233 235 237 238 240 243 245 248 251 251 251 251 251 251 252 253 255 256 258 259 260 260 260 259 258 257 257 258 258 258 258 258 259 260 260 260 260 260 261 262 263 263 264 264 265 265 266 267 269 270 271 273 274 275 276 277 278 279 280 280 281 282 282 283 283 284 284 284 285 285 285 286 286 286 286 285 285 285 285 285 285 285 285 285 285
233 234 235 236 237 239 240 242 245 248 251 252 253 253 254 255 256 257 258 260 261 262 263 262 261 260 260 260 260 259 259 259 259 259 260 260 261 261 261 261 262 263 265 266 266 267 268 269 270 271 272 273 274 275 276 276 277 278 279 280 280 281 282 282 283 283 283 283 284 284 284 284 285 284 284 284 284 284 284 284 284 284 285 285 285
233 233 234 236 237 238 239 239 239 240 242 245 247 248 250 252 254 256 258 260 261 263 264 264 264 264 265 265 265 265 264 264 263 262 262 262 262 262 263 263 263 264 265 266 267 268 269 270 271 272 273 274 275 275 276 277 277 278 279 280 281 282 282 283 283 283 283 283 284 284 284 284 284 284 284 284 284 284 285 285 285 285 285 285 286
235 235 235 236 237 239 240 241 241 241 242 243 243 244 245 246 248 249 251 254 256 257 259 260 261 262 263 265 267 268 269 269 269 269 268 267 266 266 266 266 266 266 267 268 269 270 271 271 272 273 274 275 275 276 277 278 278 279 280 281 281 282 282 283 283 283 283 283 283 283 283 283 283 283 283 284 284 284 284 285 285 285 285 285 286
236 236 237 238 238 239 240 241 243 244 245 246 247 247 248 248 249 249 249 250 251 252 254 256 258 260 262 264 266 267 268 269 270 270 270 270 270 270 270 270 270 270 271 271 271 272 272 273 274 274 275 275 276 277 278 278 279 280 281 281 281 282 282 282 282 282 282 282 282 283 283 283 283 283 283 283 284 284 285 285 285 285 285 285 285
238 237 237 238 239 240 240 241 243 245 246 247 248 249 250 251 252 252 252 252 252 253 255 257 259 261 263 265 266 267 269 269 270 270 271 271 271 272 272 272 273 273 273 274 274 274 274 274 275 275 276 276 277 278 278 279 279 280 280 280 281 281 281 281 281 281 282 282 282 282 282 283 283 283 283 284 284 285 285 285 285 285 285 285 285
242 241 240 239 239 239 240 241 242 244 245 246 247 249 250 251 252 253 253 254 255 257 258 259 260 262 264 265 266 268 269 270 270 271 271 271 271 272 272 272 273 273 273 273 274 274 274 275 275 275 276 276 277 277 278 278 278 279 279 279 280 280 281 281 281 282 282 282 283 283 283 283 284 284 284 285 285 285 285 285 285 285 285 285 284
246 245 245 244 243 242 242 242 243 244 245 246 247 248 249 250 251 252 254 255 256 257 259 260 261 262 263 264 265 267 268 269 270 270 271 271 271 271 272 272 273 273 273 273 273 274 274 275 275 275 276 276 276 277 277 278 278 278 279 279 279 280 280 281 281 282 282 283 283 283 284 284 284 285 285 285 285 284 284 284 284 283 283 282 282